Location: Nag� el Ma?a??a
(24.0667°N, 32.8833°E)
Time: 17:35:09
(UTC+00:00)

CZ-4C R/B - Visible Passes

Search period start: 27 January 2022 00:00
Search period end: 06 February 2022 00:00
Orbit: 404 x 478 km, 97.7° (Epoch: 26 January)

Date Brightness Start Highest point End Pass type
(mag) Time Alt. Az. Time Alt. Az. Time Alt. Az.
27 Jan 4.0 03:39:05 10° SSE 03:42:28 50° ENE 03:45:55 10° N visible
27 Jan 4.2 16:40:56 10° N 16:44:02 39° WNW 16:47:03 10° SW visible
28 Jan 6.1 03:03:12 10° ESE 03:04:59 13° ENE 03:06:47 10° NE visible
28 Jan 3.3 16:03:16 10° NNE 16:06:23 39° E 16:09:24 10° S visible
29 Jan 3.0 03:56:00 10° S 03:59:30 84° WSW 04:03:04 10° NNW visible
29 Jan 5.4 16:58:27 10° NNW 17:01:00 21° WNW 17:03:28 10° SW visible
30 Jan 5.5 03:19:05 10° SE 03:21:55 23° ENE 03:24:46 10° NNE visible
30 Jan 2.7 16:20:07 10° NNE 16:23:24 82° ESE 16:26:34 10° S visible
31 Jan 6.1 17:16:38 10° NW 17:17:52 12° WNW 17:19:04 10° W visible
01 Feb 4.4 03:35:30 10° SSE 03:38:50 41° ENE 03:42:12 10° N visible
01 Feb 3.8 16:37:11 10° N 16:40:18 47° WNW 16:43:21 10° SSW visible
02 Feb 6.3 03:00:07 10° E 03:01:19 11° ENE 03:02:31 10° NE visible
02 Feb 3.5 15:59:39 10° NE 16:02:34 31° E 16:05:24 10° SSE visible
03 Feb 3.2 03:52:13 10° SSE 03:55:45 79° ENE 03:59:17 10° N visible
03 Feb 5.1 16:54:28 10° NNW 16:57:09 25° WNW 16:59:47 10° SW visible
04 Feb 5.8 03:15:31 10° ESE 03:18:07 19° ENE 03:20:44 10° NNE visible
04 Feb 2.7 16:16:17 10° NNE 16:19:28 64° ESE 16:22:33 10° S visible
05 Feb 5.9 17:12:13 10° NW 17:13:54 14° WNW 17:15:36 10° WSW visible
